Погода в Молодежном

Казахстан     50°43′33″N   73°31′44″E
темп.,
°C
ветер,
м/с
пор.,
м/с
влажн.,
%
обл.,
%
осадки,
мм/ч
давл.,
гПа
погр.,
м
25 февраля, чт
чт2500:00−23юз9168790 0.1 10181006
03:00−24юз91787100 0.0 1018888
06:00−24юз91687100 0.1 10181013
09:00−24юз101787100 0.1 10191083
12:00−24зюз121785100 0.1 10201178
15:00−23зюз121684100 0.1 10241173
18:00−23зюз101687100 0.1 10271100
21:00−24з8159096 0.1 1030677
26 февраля, пт
пт2600:00−25зюз9159097 0.1 1033654
03:00−28зюз81492100 0.0 1036393
06:00−29зюз7139499 0.0 1039316
09:00−30зюз7139379 0.0 1040288
12:00−26зюз7119067 0.0 1040395
15:00−24зюз711880 0.0 1040424
18:00−26юз48910 0.0 1039179
21:00−29юз47940 0.0 1041107
27 февраля, сб
сб2700:00−30юз47940 0.0 104195
03:00−30юз46940 0.0 104080
06:00−31юз45940 0.0 104064
09:00−30ююз47940 0.0 1038119
12:00−23ююз588915 0.0 1037236
15:00−19юз588756 0.0 1035327
18:00−19ююз489165 0.0 1034142
21:00−17ююз7148890 0.0 1032335
28 февраля, вс
вс2800:00−16ююз8168694 0.0 1030370
03:00−15ююз91779100 0.0 1026486
06:00−12ююз101985100 0.0 1022634
09:00−9ююз122191100 0.2 1019821
12:00−7юз132090100 0.8 1016917
15:00−4юз131991100 0.6 1015929
18:00−3юз121891100 1.2 1014885
21:00−2юз121989100 0.1 1013769
1 марта, пн
пн100:00−3юз121991100 0.4 1013782
03:00−2юз121992100 0.8 1012875
06:00−3юз111889100 1.1 1013727
09:00−3юз10178898 0.1 1013708
12:00−2юз10159198 0.1 1013719
15:00−1юз101592100 0.1 1013848
18:00−2юз10168897 0.3 1013814
21:00−4зюз8168984 0.4 1016666